SAS1629 EKCH-EDDL

Flight info

Callsign SAS1629
Flight time 0h 57m
Altitude 38000
Route NEXEN T503 GIMRU DCT MICOS DCT KEGAB DCT DENOL T851 HALME
Aircraft A319/M-SDE2E3FGIJ1RWXY/E

Departure

Time 2026-05-04 06:25
Airport Copenhagen Kastrup Airport (EKCH)

Arrival

Time 2026-05-04 07:22
Airport Düsseldorf Airport (EDDL)
Time Latitude Longitude Altitude Speed Heading
2026-05-04 05:48 55.62730 12.65254 17 ft 0 kts
2026-05-04 06:09 55.62715 12.65251 18 ft 4 kts
2026-05-04 06:11 55.62597 12.65322 17 ft 0 kts 359°
2026-05-04 06:15 55.62607 12.65321 17 ft 3 kts 357°
2026-05-04 06:16 55.62636 12.65303 17 ft 6 kts 327°
2026-05-04 06:16 55.62649 12.65262 17 ft 4 kts 281°
2026-05-04 06:16 55.62631 12.65203 20 ft 7 kts 215°
2026-05-04 06:16 55.62581 12.65196 17 ft 7 kts 180°
2026-05-04 06:17 55.62532 12.65197 17 ft 7 kts 179°
2026-05-04 06:17 55.62487 12.65199 17 ft 6 kts 178°
2026-05-04 06:17 55.62451 12.65201 17 ft 6 kts 178°
2026-05-04 06:17 55.62413 12.65203 17 ft 5 kts 179°
2026-05-04 06:18 55.62379 12.65204 17 ft 5 kts 179°
2026-05-04 06:18 55.62356 12.65205 17 ft 0 kts 179°
2026-05-04 06:18 55.62349 12.65205 17 ft 3 kts 179°
2026-05-04 06:20 55.61879 12.64802 19 ft 13 kts 213°
2026-05-04 06:20 55.61804 12.64716 18 ft 13 kts 213°
2026-05-04 06:21 55.61634 12.64120 22 ft 16 kts 253°
2026-05-04 06:21 55.61512 12.63898 20 ft 51 kts 219°
2026-05-04 06:22 55.61064 12.63203 21 ft 118 kts 221°
2026-05-04 06:22 55.60315 12.62053 213 ft 153 kts 221°
2026-05-04 06:25 55.42755 12.39440 9365 ft 340 kts 216°
2026-05-04 06:25 55.40808 12.37064 10068 ft 348 kts 216°
2026-05-04 06:26 55.38804 12.34626 10870 ft 352 kts 216°
2026-05-04 06:26 55.36780 12.32174 11697 ft 354 kts 216°
2026-05-04 06:26 55.34744 12.29709 12508 ft 356 kts 216°
2026-05-04 06:26 55.32696 12.27228 13283 ft 359 kts 216°
2026-05-04 06:27 55.24302 12.17082 16135 ft 374 kts 216°
2026-05-04 06:28 55.22147 12.14483 16832 ft 377 kts 216°
2026-05-04 06:28 55.19974 12.11865 17514 ft 381 kts 216°
2026-05-04 06:28 55.17805 12.09175 18176 ft 384 kts 217°
2026-05-04 06:28 55.15639 12.06403 18816 ft 387 kts 218°
2026-05-04 06:29 55.13464 12.03588 19424 ft 391 kts 218°
2026-05-04 06:29 55.11273 12.00749 20011 ft 394 kts 218°
2026-05-04 06:29 55.09059 11.97889 20586 ft 397 kts 218°
2026-05-04 06:29 55.06824 11.95024 21117 ft 400 kts 217°
2026-05-04 06:30 55.04569 11.92145 21632 ft 403 kts 217°
2026-05-04 06:30 55.02325 11.89291 22116 ft 406 kts 217°
2026-05-04 06:30 55.00031 11.86386 22587 ft 409 kts 217°
2026-05-04 06:30 54.97722 11.83469 23047 ft 411 kts 217°
2026-05-04 06:31 54.95397 11.80537 23484 ft 414 kts 217°
2026-05-04 06:31 54.93055 11.77585 23916 ft 417 kts 217°
2026-05-04 06:31 54.90698 11.74614 24346 ft 420 kts 217°
2026-05-04 06:31 54.88330 11.71626 24779 ft 422 kts 217°
2026-05-04 06:32 54.85947 11.68626 25196 ft 424 kts 217°
2026-05-04 06:33 54.68888 11.47320 27824 ft 439 kts 217°
2026-05-04 06:34 54.66439 11.44275 28148 ft 440 kts 217°
2026-05-04 06:34 54.63946 11.41180 28471 ft 442 kts 217°
2026-05-04 06:34 54.61447 11.38086 28885 ft 441 kts 217°
2026-05-04 06:34 54.58955 11.35012 29349 ft 440 kts 217°
2026-05-04 06:35 54.56467 11.31947 29817 ft 438 kts 217°
2026-05-04 06:36 54.39396 11.11209 33290 ft 424 kts 216°
2026-05-04 06:37 54.36987 11.08297 33723 ft 423 kts 216°
2026-05-04 06:37 54.34583 11.05393 34158 ft 423 kts 216°
2026-05-04 06:37 54.32177 11.02490 34580 ft 422 kts 216°
2026-05-04 06:37 54.29777 10.99601 34971 ft 422 kts 216°
2026-05-04 06:38 54.27364 10.96726 35348 ft 423 kts 216°
2026-05-04 06:38 54.24975 10.93901 35704 ft 423 kts 216°
2026-05-04 06:40 54.08003 10.73954 37939 ft 422 kts 216°
2026-05-04 06:40 54.05587 10.71131 37967 ft 422 kts 216°
2026-05-04 06:40 54.00742 10.65487 37969 ft 422 kts 216°
2026-05-04 06:41 53.95898 10.59850 37973 ft 422 kts 216°
2026-05-04 06:41 53.91057 10.54219 37963 ft 422 kts 215°
2026-05-04 06:42 53.86210 10.48615 37972 ft 422 kts 215°
2026-05-04 06:44 53.66827 10.26351 37958 ft 422 kts 215°
2026-05-04 06:44 53.61969 10.20810 37961 ft 422 kts 215°
2026-05-04 06:45 53.57104 10.15276 37972 ft 422 kts 215°
2026-05-04 06:45 53.52237 10.09744 37973 ft 422 kts 215°
2026-05-04 06:46 53.47365 10.04238 37969 ft 422 kts 215°
2026-05-04 06:46 53.42484 9.98745 37977 ft 422 kts 215°
2026-05-04 06:48 53.22976 9.76886 37977 ft 422 kts 215°
2026-05-04 06:50 53.03448 9.55268 37978 ft 422 kts 214°
2026-05-04 06:51 52.98547 9.49887 37979 ft 422 kts 214°
2026-05-04 06:51 52.93644 9.44518 37982 ft 422 kts 214°
2026-05-04 06:52 52.88525 9.39768 37978 ft 423 kts 208°
2026-05-04 06:52 52.83260 9.35443 37979 ft 422 kts 208°
2026-05-04 06:53 52.77994 9.31141 37961 ft 422 kts 207°
2026-05-04 06:53 52.72763 9.26871 37972 ft 422 kts 207°
2026-05-04 06:54 52.67491 9.22570 37971 ft 422 kts 208°
2026-05-04 06:54 52.62279 9.18318 37692 ft 414 kts 207°
2026-05-04 06:55 52.59704 9.16231 37270 ft 412 kts 208°
2026-05-04 06:55 52.57133 9.14150 36806 ft 411 kts 207°
2026-05-04 06:55 52.54572 9.12080 36314 ft 409 kts 207°
2026-05-04 06:55 52.52010 9.10010 35730 ft 410 kts 207°
2026-05-04 06:56 52.49475 9.07967 35156 ft 411 kts 207°
2026-05-04 06:57 52.32071 8.94013 32071 ft 387 kts 208°
2026-05-04 06:58 52.29663 8.92086 31606 ft 384 kts 208°
2026-05-04 06:58 52.27271 8.90179 31140 ft 381 kts 208°
2026-05-04 06:58 52.24893 8.88284 30687 ft 379 kts 208°
2026-05-04 06:58 52.22532 8.86403 30244 ft 377 kts 208°
2026-05-04 06:59 52.20185 8.84537 29802 ft 374 kts 208°
2026-05-04 06:59 52.17853 8.82686 29361 ft 372 kts 208°
2026-05-04 06:59 52.15528 8.80845 28918 ft 370 kts 208°
2026-05-04 06:59 52.13219 8.79020 28490 ft 368 kts 208°
2026-05-04 07:01 51.98724 8.64005 25592 ft 348 kts 239°
2026-05-04 07:01 51.97644 8.60500 25120 ft 347 kts 249°
2026-05-04 07:02 51.96985 8.56744 24663 ft 347 kts 258°
2026-05-04 07:02 51.96511 8.52923 24207 ft 345 kts 257°
2026-05-04 07:02 51.96027 8.49109 23753 ft 343 kts 257°
2026-05-04 07:02 51.95706 8.46612 23451 ft 341 kts 257°
2026-05-04 07:03 51.95221 8.42861 23002 ft 339 kts 257°
2026-05-04 07:03 51.94736 8.39138 22555 ft 337 kts 257°
2026-05-04 07:03 51.94254 8.35431 22105 ft 334 kts 257°
2026-05-04 07:03 51.93775 8.31761 21657 ft 332 kts 257°
2026-05-04 07:04 51.93298 8.28109 21207 ft 330 kts 257°
2026-05-04 07:04 51.92827 8.24481 20759 ft 328 kts 257°
2026-05-04 07:04 51.92356 8.20881 20320 ft 326 kts 257°
2026-05-04 07:04 51.91885 8.17304 19878 ft 324 kts 257°
2026-05-04 07:05 51.91415 8.13743 19431 ft 322 kts 257°
2026-05-04 07:05 51.90950 8.10207 18990 ft 320 kts 257°
2026-05-04 07:05 51.90488 8.06691 18549 ft 318 kts 257°
2026-05-04 07:05 51.90028 8.03200 18123 ft 316 kts 257°
2026-05-04 07:06 51.89114 7.96274 17258 ft 313 kts 257°
2026-05-04 07:06 51.88662 7.92891 16842 ft 311 kts 257°
2026-05-04 07:06 51.88201 7.89476 16416 ft 308 kts 256°
2026-05-04 07:07 51.87744 7.86094 15998 ft 307 kts 257°
2026-05-04 07:08 51.83533 7.63580 13146 ft 294 kts 244°
2026-05-04 07:09 51.82655 7.60614 12746 ft 292 kts 244°
2026-05-04 07:09 51.81783 7.57662 12345 ft 290 kts 244°
2026-05-04 07:09 51.80913 7.54727 11951 ft 289 kts 243°
2026-05-04 07:09 51.79724 7.52144 11549 ft 288 kts 221°
2026-05-04 07:10 51.78089 7.50276 11160 ft 288 kts 214°
2026-05-04 07:10 51.76408 7.48516 10784 ft 288 kts 213°
2026-05-04 07:12 51.64814 7.36518 8152 ft 279 kts 213°
2026-05-04 07:12 51.63184 7.34838 7770 ft 277 kts 213°
2026-05-04 07:12 51.61563 7.33168 7401 ft 276 kts 213°
2026-05-04 07:12 51.59949 7.31506 7025 ft 275 kts 213°
2026-05-04 07:13 51.58337 7.29845 6649 ft 274 kts 213°
2026-05-04 07:13 51.56736 7.28196 6272 ft 273 kts 213°
2026-05-04 07:13 51.55145 7.26556 5918 ft 270 kts 213°
2026-05-04 07:14 51.49092 7.19903 4715 ft 258 kts 228°
2026-05-04 07:14 51.47982 7.17661 4448 ft 255 kts 234°
2026-05-04 07:15 51.46943 7.15387 4192 ft 251 kts 234°
2026-05-04 07:15 51.45911 7.13167 3944 ft 246 kts 233°
2026-05-04 07:15 51.44892 7.10995 3689 ft 242 kts 233°
2026-05-04 07:15 51.43886 7.08851 3443 ft 239 kts 233°
2026-05-04 07:16 51.42897 7.06746 3186 ft 235 kts 233°
2026-05-04 07:16 51.41927 7.04688 3032 ft 227 kts 233°
2026-05-04 07:16 51.41008 7.02736 3000 ft 211 kts 233°
2026-05-04 07:16 51.40148 7.00915 3002 ft 201 kts 233°
2026-05-04 07:17 51.39311 6.99141 3004 ft 199 kts 233°
2026-05-04 07:17 51.38501 6.97425 2971 ft 188 kts 233°
2026-05-04 07:17 51.37721 6.95774 2792 ft 183 kts 233°
2026-05-04 07:17 51.36964 6.94171 2616 ft 177 kts 233°
2026-05-04 07:18 51.36227 6.92615 2353 ft 173 kts 232°
2026-05-04 07:18 51.35509 6.91096 2122 ft 169 kts 233°
2026-05-04 07:18 51.34808 6.89615 1903 ft 164 kts 232°
2026-05-04 07:18 51.34142 6.88210 1688 ft 153 kts 231°
2026-05-04 07:19 51.33518 6.86895 1487 ft 143 kts 232°
2026-05-04 07:19 51.32947 6.85692 1321 ft 131 kts 232°
2026-05-04 07:19 51.32408 6.84557 1143 ft 126 kts 231°
2026-05-04 07:19 51.31880 6.83454 960 ft 124 kts 230°
2026-05-04 07:20 51.31357 6.82353 814 ft 125 kts 230°
2026-05-04 07:20 51.30838 6.81252 648 ft 124 kts 231°
2026-05-04 07:20 51.30318 6.80158 487 ft 124 kts 231°
2026-05-04 07:20 51.29797 6.79059 300 ft 123 kts 232°
2026-05-04 07:22 51.28239 6.76051 126 ft 13 kts 167°
2026-05-04 07:22 51.28190 6.76137 127 ft 10 kts 86°
2026-05-04 07:23 51.28238 6.76249 126 ft 15 kts 51°
2026-05-04 07:23 51.28288 6.76353 124 ft 18 kts 52°
2026-05-04 07:23 51.28368 6.76518 126 ft 15 kts 52°
2026-05-04 07:23 51.28414 6.76635 126 ft 11 kts 83°
2026-05-04 07:24 51.28362 6.76737 125 ft 14 kts 143°
2026-05-04 07:24 51.28294 6.76822 129 ft 12 kts 142°
2026-05-04 07:24 51.28209 6.76844 129 ft 14 kts 187°
2026-05-04 07:24 51.28121 6.76820 130 ft 13 kts 197°
2026-05-04 07:25 51.28062 6.76790 125 ft 5 kts 198°
2026-05-04 07:26 51.28059 6.76706 128 ft 0 kts 275°